• In Hungary
  • List of Countries
  • For 7 days
  • Water Temperature
  • Satellite Maps
  • Weather Map
  • News
  • Weather Widgets
  • user-avatar
    Login

    Hourly Weather Newark

    Today, 21 February, Wednesday

    Time Temperature Precipitation Wind Pressure Humidity
    00:00 +14°C° 0 mm 4 mps 769 mmHg 95%
    01:00 +13°C° 0 mm 3 mps 768 mmHg 95%
    02:00 +14°C° 0 mm 4 mps 768 mmHg 96%
    03:00 +14°C° 0 mm 4 mps 768 mmHg 96%
    04:00 +14°C° 0 mm 4 mps 768 mmHg 97%
    05:00 +14°C° 0 mm 4 mps 768 mmHg 96%
    06:00 +14°C° 0 mm 4 mps 768 mmHg 96%
    07:00 +15°C° 0 mm 4 mps 768 mmHg 95%
    08:00 +17°C° 0 mm 4 mps 768 mmHg 92%
    09:00 +16°C° 0 mm 5 mps 768 mmHg 89%
    10:00 +17°C° 0 mm 5 mps 768 mmHg 86%
    11:00 +19°C° 0 mm 5 mps 768 mmHg 82%
    12:00 +21°C° 0 mm 5 mps 767 mmHg 78%
    13:00 +22°C° 0 mm 5 mps 767 mmHg 74%
    14:00 +23°C° 0 mm 5 mps 767 mmHg 72%
    15:00 +23°C° 0 mm 4 mps 766 mmHg 70%
    16:00 +25°C° 0 mm 4 mps 766 mmHg 68%
    17:00 +22°C° 0.2 mm 4 mps 767 mmHg 74%
    18:00 +21°C° 0.2 mm 4 mps 768 mmHg 80%
    19:00 +19°C° 0.2 mm 4 mps 768 mmHg 86%
    20:00 +17°C° 0.1 mm 4 mps 769 mmHg 81%
    21:00 +14°C° 0.1 mm 4 mps 770 mmHg 76%
    22:00 +12°C° 0.1 mm 5 mps 771 mmHg 71%
    23:00 +11°C° 0 mm 4 mps 771 mmHg 70%

    Tomorrow, 22 February, Thursday

    Time Temperature Precipitation Wind Pressure Humidity
    00:00 +11°C° 0 mm 4 mps 772 mmHg 70%
    01:00 +10°C° 0 mm 4 mps 772 mmHg 69%
    02:00 +8°C° 0 mm 4 mps 773 mmHg 69%
    03:00 +8°C° 0 mm 4 mps 773 mmHg 68%
    04:00 +8°C° 0 mm 4 mps 773 mmHg 67%
    05:00 +7°C° 0 mm 4 mps 774 mmHg 66%
    06:00 +7°C° 0 mm 4 mps 774 mmHg 64%
    07:00 +6°C° 0 mm 4 mps 774 mmHg 62%
    08:00 +6°C° 0.3 mm 4 mps 775 mmHg 63%
    09:00 +5°C° 0.3 mm 4 mps 775 mmHg 65%
    10:00 +5°C° 0.3 mm 5 mps 776 mmHg 67%
    11:00 +5°C° 0.7 mm 5 mps 776 mmHg 71%
    12:00 +3°C° 0.7 mm 5 mps 776 mmHg 75%
    13:00 +3°C° 0.7 mm 5 mps 776 mmHg 80%
    14:00 +3°C° 1 mm 5 mps 776 mmHg 80%
    15:00 +4°C° 1 mm 4 mps 775 mmHg 81%
    16:00 +4°C° 1 mm 4 mps 775 mmHg 82%
    17:00 +3°C° 0.4 mm 4 mps 776 mmHg 82%
    18:00 +3°C° 0.4 mm 4 mps 776 mmHg 82%
    19:00 +3°C° 0.4 mm 3 mps 776 mmHg 82%
    20:00 +3°C° 0.1 mm 4 mps 776 mmHg 83%
    21:00 +3°C° 0.1 mm 4 mps 776 mmHg 83%
    22:00 +3°C° 0.1 mm 4 mps 776 mmHg 83%
    23:00 +3°C° 0 mm 4 mps 776 mmHg 84%

    Day after tomorrow, 23 February, Friday

    Time Temperature Precipitation Wind Pressure Humidity
    00:00 +3°C° 0 mm 4 mps 776 mmHg 84%
    01:00 +3°C° 0 mm 4 mps 776 mmHg 84%
    02:00 +3°C° 0 mm 4 mps 776 mmHg 84%
    03:00 +3°C° 0 mm 4 mps 775 mmHg 84%
    04:00 +3°C° 0 mm 4 mps 775 mmHg 84%
    05:00 +3°C° 0.1 mm 4 mps 775 mmHg 85%
    06:00 +3°C° 0.1 mm 4 mps 775 mmHg 85%
    07:00 +3°C° 0.1 mm 4 mps 775 mmHg 85%
    08:00 +3°C° 0.1 mm 4 mps 774 mmHg 85%
    09:00 +3°C° 0.1 mm 4 mps 774 mmHg 84%
    10:00 +3°C° 0.1 mm 4 mps 774 mmHg 83%
    11:00 +3°C° 0.9 mm 4 mps 773 mmHg 84%
    12:00 +3°C° 0.9 mm 4 mps 772 mmHg 85%
    13:00 +3°C° 0.9 mm 4 mps 772 mmHg 87%
    14:00 +3°C° 2.2 mm 3 mps 771 mmHg 88%
    15:00 +4°C° 2.2 mm 3 mps 770 mmHg 90%
    16:00 +4°C° 2.2 mm 3 mps 769 mmHg 91%
    17:00 +5°C° 0.5 mm 2 mps 768 mmHg 92%
    18:00 +5°C° 0.5 mm 2 mps 768 mmHg 93%
    19:00 +5°C° 0.5 mm 2 mps 767 mmHg 94%
    20:00 +6°C° 0.1 mm 2 mps 766 mmHg 95%
    21:00 +6°C° 0.1 mm 2 mps 766 mmHg 96%
    22:00 +7°C° 0.1 mm 2 mps 765 mmHg 97%
    23:00 +8°C° 0 mm 3 mps 764 mmHg 97%

    24 February, Saturday

    Time Temperature Precipitation Wind Pressure Humidity
    00:00 +8°C° 0 mm 3 mps 764 mmHg 97%
    01:00 +9°C° 0 mm 3 mps 763 mmHg 97%
    02:00 +9°C° 0.4 mm 3 mps 763 mmHg 97%
    03:00 +9°C° 0.4 mm 2 mps 763 mmHg 97%
    04:00 +9°C° 0.4 mm 2 mps 762 mmHg 97%
    05:00 +9°C° 0.3 mm 2 mps 763 mmHg 96%
    06:00 +9°C° 0.3 mm 2 mps 763 mmHg 95%
    07:00 +9°C° 0.3 mm 2 mps 763 mmHg 95%
    08:00 +10°C° 0.1 mm 2 mps 764 mmHg 91%
    09:00 +11°C° 0.1 mm 1 mps 764 mmHg 88%
    10:00 +11°C° 0.1 mm 1 mps 764 mmHg 84%
    11:00 +12°C° 0 mm 1 mps 764 mmHg 81%
    12:00 +13°C° 0 mm 1 mps 763 mmHg 79%
    13:00 +13°C° 0 mm 1 mps 763 mmHg 76%
    14:00 +13°C° 0 mm 2 mps 763 mmHg 78%
    15:00 +13°C° 0 mm 2 mps 763 mmHg 81%
    16:00 +12°C° 0 mm 2 mps 762 mmHg 83%
    17:00 +11°C° 0.9 mm 3 mps 762 mmHg 85%
    18:00 +10°C° 0.9 mm 3 mps 762 mmHg 88%
    19:00 +10°C° 0.9 mm 3 mps 763 mmHg 90%
    20:00 +8°C° 1.3 mm 4 mps 762 mmHg 90%
    21:00 +8°C° 1.3 mm 4 mps 762 mmHg 90%
    22:00 +8°C° 1.3 mm 5 mps 762 mmHg 90%
    23:00 +8°C° 2.2 mm 5 mps 761 mmHg 91%

    25 February, Sunday

    Time Temperature Precipitation Wind Pressure Humidity
    00:00 +8°C° 2.2 mm 5 mps 760 mmHg 92%
    01:00 +8°C° 2.2 mm 5 mps 760 mmHg 93%
    02:00 +7°C° 1.6 mm 5 mps 759 mmHg 93%
    03:00 +7°C° 1.6 mm 5 mps 759 mmHg 92%
    04:00 +7°C° 1.6 mm 5 mps 758 mmHg 92%
    05:00 +7°C° 1.5 mm 4 mps 758 mmHg 93%
    06:00 +7°C° 1.5 mm 4 mps 757 mmHg 93%
    07:00 +8°C° 1.5 mm 3 mps 757 mmHg 94%
    08:00 +9°C° 2.2 mm 3 mps 757 mmHg 95%
    09:00 +10°C° 2.2 mm 3 mps 756 mmHg 95%
    10:00 +10°C° 2.2 mm 3 mps 756 mmHg 96%
    11:00 +12°C° 0.3 mm 4 mps 755 mmHg 95%
    12:00 +14°C° 0.3 mm 4 mps 755 mmHg 94%
    13:00 +15°C° 0.3 mm 5 mps 754 mmHg 93%
    14:00 +16°C° 0.1 mm 5 mps 754 mmHg 86%
    15:00 +19°C° 0.1 mm 5 mps 754 mmHg 80%
    16:00 +20°C° 0.1 mm 6 mps 754 mmHg 73%
    17:00 +17°C° 0 mm 5 mps 755 mmHg 68%
    18:00 +15°C° 0 mm 5 mps 756 mmHg 62%
    19:00 +13°C° 0 mm 5 mps 758 mmHg 57%
    20:00 +12°C° 0 mm 5 mps 758 mmHg 58%
    21:00 +10°C° 0 mm 5 mps 759 mmHg 58%
    22:00 +9°C° 0 mm 5 mps 760 mmHg 59%
    23:00 +8°C° 0 mm 5 mps 761 mmHg 60%

    26 February, Monday

    Time Temperature Precipitation Wind Pressure Humidity
    00:00 +8°C° 0 mm 5 mps 761 mmHg 60%
    01:00 +7°C° 0 mm 4 mps 762 mmHg 60%
    02:00 +6°C° 0 mm 4 mps 762 mmHg 60%
    03:00 +6°C° 0 mm 4 mps 763 mmHg 59%
    04:00 +6°C° 0 mm 4 mps 763 mmHg 59%
    05:00 +5°C° 0 mm 4 mps 764 mmHg 58%
    06:00 +5°C° 0 mm 3 mps 764 mmHg 58%
    07:00 +5°C° 0 mm 3 mps 764 mmHg 57%
    08:00 +7°C° 0 mm 3 mps 765 mmHg 53%
    09:00 +7°C° 0 mm 3 mps 765 mmHg 49%
    10:00 +8°C° 0 mm 3 mps 765 mmHg 45%
    11:00 +9°C° 0 mm 3 mps 765 mmHg 42%
    12:00 +10°C° 0 mm 3 mps 765 mmHg 38%
    13:00 +12°C° 0 mm 3 mps 765 mmHg 35%
    14:00 +12°C° 0 mm 3 mps 764 mmHg 35%
    15:00 +12°C° 0 mm 3 mps 764 mmHg 36%
    16:00 +12°C° 0 mm 3 mps 764 mmHg 37%
    17:00 +11°C° 0 mm 3 mps 764 mmHg 42%
    18:00 +10°C° 0 mm 3 mps 765 mmHg 46%
    19:00 +9°C° 0 mm 3 mps 765 mmHg 51%
    20:00 +8°C° 0 mm 3 mps 765 mmHg 53%
    21:00 +8°C° 0 mm 3 mps 765 mmHg 56%
    22:00 +7°C° 0 mm 3 mps 765 mmHg 58%
    23:00 +5°C° 0 mm 4 mps 765 mmHg 57%
    Show more